Owosso, MI

9:31 PM EST on November 19, 2017 (GMT -0500)
Owosso

Weather History for KRNP - November, 2013

Change the Weather History Date:

Monday, November 18, 2013

  Actual Average (KFNT) Record (KFNT)
Temperature  
Mean Temperature 40 °F -  
Max Temperature 46 °F 46 °F 71 °F (2016)
Min Temperature 35 °F 31 °F 11 °F (1959)
Degree Days  
Heating Degree Days 24    
Moisture  
Dew Point 30 °F    
Average Humidity 67    
Maximum Humidity 84    
Minimum Humidity 59    
Precipitation  
Precipitation 0.00 in - - ()
Sea Level Pressure  
Sea Level Pressure 29.80 in    
Wind  
Wind Speed 20 mph (West)    
Max Wind Speed 29 mph    
Max Gust Speed 44 mph    
Visibility 10 miles    
Events      
Averages and records for this station are not official NWS values.
T = Trace of Precipitation, MM = Missing Value Source: NWS Daily Summary

Daily Weather History Graph

Daily Weather History Graph

Search for Another Location

Airport or City:

Trip Planner

Search our weather history database for the weather conditions in past years. The results will help you decide how hot, cold, wet, or windy it might be!

Date:

Astronomy

Nov. 18, 2013 Rise Set
Actual Time 7:33 AM EST 5:10 PM EST
Civil Twilight 7:02 AM EST 5:41 PM EST
Nautical Twilight 6:27 AM EST 6:15 PM EST
Astronomical Twilight 5:53 AM EST 6:49 PM EST
Moon 6:11 PM EST (11/18) 8:21 AM EST (11/18)
Length of Visible Light 10h 38m
Length of Day
9h 37m
Full, 99% of the Moon is Illuminated
Nov 18
Full
Nov 25
Last Quarter
Dec 2
New
Dec 9
First Quarter
Dec 17
Full

Hourly Weather History & Observations

Time (EST) Temp. Windchill Dew Point Humidity Pressure Visibility Wind Dir Wind Speed Gust Speed Precip Events Conditions
12:14 AM 46.4 °F 37.5 °F 41.9 °F 84% 29.44 in 10.0 mi WSW 27.6 mph 43.7 mph N/A   Overcast
12:35 AM 46.6 °F - 40.6 °F 80% 29.46 in 10.0 mi WSW 28.8 mph 40.3 mph N/A   Overcast
12:55 AM 46.4 °F 38.3 °F 39.6 °F 77% 29.48 in 10.0 mi West 23.0 mph 41.4 mph N/A   Overcast
1:14 AM 46.0 °F 37.6 °F 38.5 °F 75% 29.49 in 10.0 mi WSW 24.2 mph 35.7 mph N/A   Overcast
1:35 AM 45.9 °F 38.3 °F 38.3 °F 75% 29.51 in 10.0 mi WSW 19.6 mph 33.4 mph N/A   Overcast
1:55 AM 45.7 °F 36.6 °F 36.7 °F 71% 29.52 in 10.0 mi West 27.6 mph 39.1 mph N/A   Overcast
2:15 AM 45.5 °F 38.3 °F 36.7 °F 71% 29.54 in 10.0 mi WSW 17.3 mph 33.4 mph N/A   Overcast
2:35 AM 45.5 °F 38.1 °F 36.5 °F 71% 29.54 in 10.0 mi WSW 18.4 mph 27.6 mph N/A   Overcast
2:55 AM 45.5 °F 37.1 °F 35.1 °F 67% 29.55 in 10.0 mi WSW 23.0 mph 31.1 mph N/A   Overcast
3:15 AM 45.3 °F 37.8 °F 35.1 °F 67% 29.56 in 10.0 mi WSW 18.4 mph 28.8 mph N/A   Overcast
3:35 AM 45.0 °F 37.1 °F 34.9 °F 68% 29.57 in 10.0 mi WSW 19.6 mph 27.6 mph N/A   Overcast
3:54 AM 44.8 °F 38.0 °F 35.4 °F 70% 29.58 in 10.0 mi WSW 15.0 mph 29.9 mph N/A   Overcast
4:15 AM 44.6 °F 35.5 °F 34.3 °F 67% 29.58 in 10.0 mi WSW 25.3 mph 34.5 mph N/A   Overcast
4:35 AM 44.4 °F 36.4 °F 33.3 °F 65% 29.59 in 10.0 mi WSW 19.6 mph 36.8 mph N/A   Overcast
4:54 AM 44.2 °F 37.0 °F 35.4 °F 71% 29.60 in 10.0 mi WSW 16.1 mph 27.6 mph N/A   Overcast
5:15 AM 44.1 °F 36.2 °F 35.6 °F 72% 29.61 in 10.0 mi WSW 18.4 mph 29.9 mph N/A   Overcast
5:35 AM 43.9 °F 35.7 °F 34.9 °F 71% 29.61 in 10.0 mi WSW 19.6 mph 26.5 mph N/A   Overcast
5:54 AM 43.7 °F 35.0 °F 33.8 °F 68% 29.62 in 10.0 mi WSW 21.9 mph 33.4 mph N/A   Overcast
6:15 AM 43.3 °F 35.2 °F 32.9 °F 67% 29.62 in 10.0 mi WSW 18.4 mph 32.2 mph N/A   Overcast
6:35 AM 43.0 °F 35.1 °F 32.9 °F 68% 29.63 in 10.0 mi WSW 17.3 mph 27.6 mph N/A   Overcast
6:55 AM 42.8 °F 34.8 °F 32.2 °F 66% 29.64 in 10.0 mi WSW 17.3 mph 25.3 mph N/A   Overcast
7:15 AM 42.6 °F 34.0 °F 32.5 °F 68% 29.64 in 10.0 mi WSW 19.6 mph 26.5 mph N/A   Overcast
7:35 AM 42.4 °F 34.1 °F 32.9 °F 69% 29.65 in 10.0 mi WSW 18.4 mph 25.3 mph N/A   Overcast
7:55 AM 42.4 °F 35.0 °F 33.8 °F 71% 29.66 in 10.0 mi WSW 15.0 mph 23.0 mph N/A   Overcast
8:15 AM 42.8 °F 35.4 °F 34.3 °F 72% 29.66 in 10.0 mi WSW 15.0 mph 25.3 mph N/A   Overcast
8:34 AM 42.3 °F 35.5 °F 34.0 °F 72% 29.67 in 10.0 mi WSW 12.7 mph 20.7 mph N/A   Overcast
8:55 AM 41.9 °F 34.3 °F 32.2 °F 68% 29.69 in 10.0 mi West 15.0 mph 26.5 mph N/A   Overcast
9:15 AM 41.5 °F 32.4 °F 32.0 °F 69% 29.69 in 10.0 mi West 20.7 mph 26.5 mph N/A   Overcast
9:34 AM 41.2 °F 33.4 °F 32.0 °F 70% 29.70 in 10.0 mi WSW 15.0 mph 25.3 mph N/A   Overcast
9:55 AM 41.0 °F 31.9 °F 31.6 °F 69% 29.71 in 10.0 mi WSW 19.6 mph 28.8 mph N/A   Overcast
10:15 AM 40.6 °F 30.7 °F 30.6 °F 67% 29.73 in 10.0 mi West 23.0 mph 31.1 mph N/A   Overcast
10:34 AM 39.7 °F 30.0 °F 30.2 °F 69% 29.74 in 10.0 mi West 20.7 mph 32.2 mph N/A   Overcast
10:55 AM 39.2 °F 29.8 °F 30.4 °F 71% 29.75 in 10.0 mi West 18.4 mph 28.8 mph N/A   Overcast
11:15 AM 39.2 °F 30.2 °F 29.7 °F 69% 29.76 in 10.0 mi West 17.3 mph 31.1 mph N/A   Overcast
11:34 AM 39.4 °F 29.2 °F 30.0 °F 69% 29.76 in 10.0 mi West 21.9 mph 28.8 mph N/A   Overcast
11:55 AM 39.4 °F 30.7 °F 30.2 °F 70% 29.78 in 10.0 mi West 16.1 mph 24.2 mph N/A   Overcast
12:15 PM 38.7 °F 28.6 °F 30.2 °F 72% 29.79 in 10.0 mi West 20.7 mph 27.6 mph N/A   Overcast
12:35 PM 37.9 °F 28.5 °F 29.8 °F 73% 29.80 in 10.0 mi West 17.3 mph 28.8 mph N/A   Overcast
12:55 PM 37.8 °F 28.0 °F 29.7 °F 73% 29.81 in 10.0 mi West 18.4 mph 25.3 mph N/A   Overcast
1:14 PM 37.8 °F 28.6 °F 28.6 °F 69% 29.81 in 10.0 mi West 16.1 mph 28.8 mph N/A   Overcast
1:35 PM 37.8 °F 27.7 °F 27.7 °F 67% 29.82 in 10.0 mi West 19.6 mph 27.6 mph N/A   Overcast
1:55 PM 37.4 °F 25.6 °F 27.3 °F 67% 29.83 in 10.0 mi West 26.5 mph 32.2 mph N/A   Overcast
2:15 PM 37.0 °F 26.2 °F 27.1 °F 67% 29.84 in 10.0 mi West 21.9 mph 31.1 mph N/A   Overcast
2:35 PM 36.9 °F 27.1 °F 27.5 °F 69% 29.85 in 10.0 mi West 17.3 mph 28.8 mph N/A   Overcast
2:54 PM 36.7 °F 27.6 °F 26.1 °F 65% 29.87 in 10.0 mi West 15.0 mph 33.4 mph N/A   Overcast
3:15 PM 36.5 °F 25.7 °F 23.4 °F 59% 29.88 in 10.0 mi West 20.7 mph 38.0 mph N/A   Overcast
3:35 PM 36.5 °F 26.0 °F 24.6 °F 62% 29.90 in 10.0 mi West 19.6 mph 27.6 mph N/A   Overcast
3:54 PM 36.3 °F 27.5 °F 24.8 °F 63% 29.91 in 10.0 mi West 13.8 mph 24.2 mph N/A   Overcast
4:15 PM 36.1 °F 25.2 °F 23.9 °F 61% 29.93 in 10.0 mi West 20.7 mph 27.6 mph N/A   Overcast
4:35 PM 36.0 °F 26.7 °F 23.9 °F 62% 29.94 in 10.0 mi West 15.0 mph 23.0 mph N/A   Overcast
4:54 PM 35.8 °F 26.9 °F 23.7 °F 62% 29.96 in 10.0 mi West 13.8 mph 24.2 mph N/A   Overcast
5:15 PM 35.8 °F 25.7 °F 23.4 °F 61% 29.96 in 10.0 mi West 17.3 mph 23.0 mph N/A   Overcast
5:34 PM 35.8 °F 25.7 °F 23.0 °F 60% 29.97 in 10.0 mi West 17.3 mph 24.2 mph N/A   Overcast
5:55 PM 35.8 °F 27.3 °F 23.0 °F 60% 29.98 in 10.0 mi West 12.7 mph 25.3 mph N/A   Overcast
6:15 PM 35.8 °F 26.5 °F 23.7 °F 62% 29.99 in 10.0 mi West 15.0 mph - N/A   Overcast
6:34 PM 36.0 °F 26.3 °F 23.7 °F 61% 30.00 in 10.0 mi West 16.1 mph 23.0 mph N/A   Overcast
6:55 PM 36.0 °F 25.6 °F 23.9 °F 62% 30.01 in 10.0 mi West 18.4 mph 25.3 mph N/A   Overcast
7:15 PM 36.0 °F 26.0 °F 24.3 °F 63% 30.02 in 10.0 mi West 17.3 mph 20.7 mph N/A   Overcast
7:35 PM 36.1 °F 25.9 °F 23.7 °F 61% 30.03 in 10.0 mi West 18.4 mph 21.9 mph N/A   Overcast
7:55 PM 36.1 °F 25.9 °F 23.0 °F 59% 30.04 in 10.0 mi WNW 18.4 mph 24.2 mph N/A   Overcast
8:14 PM 36.1 °F 28.2 °F 23.5 °F 60% 30.04 in 10.0 mi West 11.5 mph 17.3 mph N/A   Overcast
8:35 PM 36.1 °F 27.7 °F 23.0 °F 59% 30.06 in 10.0 mi West 12.7 mph 23.0 mph N/A   Overcast
8:55 PM 36.1 °F 26.9 °F 23.5 °F 60% 30.07 in 10.0 mi West 15.0 mph 21.9 mph N/A   Overcast
9:14 PM 36.0 °F 27.5 °F 23.7 °F 61% 30.07 in 10.0 mi West 12.7 mph 18.4 mph N/A   Overcast
9:35 PM 36.0 °F 28.0 °F 23.7 °F 61% 30.07 in 10.0 mi West 11.5 mph 19.6 mph N/A   Overcast
9:55 PM 36.1 °F 28.7 °F 23.2 °F 59% 30.08 in 10.0 mi West 10.4 mph 17.3 mph N/A   Overcast
10:14 PM 36.1 °F 28.2 °F 23.7 °F 61% 30.09 in 10.0 mi West 11.5 mph - N/A   Overcast
10:35 PM 36.1 °F 28.2 °F 23.9 °F 61% 30.09 in 10.0 mi West 11.5 mph - N/A   Overcast
10:55 PM 36.0 °F 28.5 °F 24.3 °F 63% 30.09 in 10.0 mi West 10.4 mph - N/A   Overcast
11:14 PM 36.1 °F 29.9 °F 23.7 °F 61% 30.10 in 10.0 mi WNW 8.1 mph - N/A   Overcast
11:35 PM 36.1 °F 28.2 °F 23.9 °F 61% 30.11 in 10.0 mi WNW 11.5 mph - N/A   Overcast
11:55 PM 36.1 °F 27.7 °F 23.7 °F 61% 30.12 in 10.0 mi WNW 12.7 mph 19.6 mph N/A   Overcast